Time,TemperatureF,DewpointF,PressureIn,WindDirection,WindDirectionDegrees,WindSpeedMPH,WindSpeedGustMPH,Humidity,HourlyPrecipIn,Conditions,Clouds,dailyrainin,SolarRadiationWatts/m^2,SoftwareType,DateUTC
2013-07-05 05:48:00,69.0,67.8,30.06,SSW,206,0.0,0.0,96,0.00,,,0.00,0,Wunderground v.1.15,2013-07-05 09:48:00,
2013-07-05 05:53:00,69.0,67.8,30.06,SSW,206,0.0,0.0,96,0.00,,,0.00,0,Wunderground v.1.15,2013-07-05 09:53:00,
2013-07-05 05:58:00,69.1,67.9,30.07,SSW,205,0.0,0.0,96,0.00,,,0.00,0,Wunderground v.1.15,2013-07-05 09:58:00,
2013-07-05 06:08:00,69.2,68.0,30.08,NNW,338,0.0,0.0,96,0.00,,,0.00,0,Wunderground v.1.15,2013-07-05 10:08:00,
2013-07-05 06:19:00,69.1,67.9,30.08,NW,321,0.0,0.0,96,0.00,,,0.00,0,Wunderground v.1.15,2013-07-05 10:19:00,
2013-07-05 06:28:00,69.2,68.0,30.08,NW,309,0.0,0.0,96,0.00,,,0.00,9,Wunderground v.1.15,2013-07-05 10:28:00,
2013-07-05 06:33:00,69.1,67.9,30.07,West,272,0.0,0.0,96,0.00,,,0.00,11,Wunderground v.1.15,2013-07-05 10:33:00,
2013-07-05 06:43:00,69.0,67.8,30.07,West,272,0.0,0.0,96,0.00,,,0.01,12,Wunderground v.1.15,2013-07-05 10:43:00,
2013-07-05 06:53:00,69.1,67.9,30.07,WNW,283,0.0,0.0,96,0.00,,,0.01,11,Wunderground v.1.15,2013-07-05 10:53:00,
2013-07-05 06:59:00,69.1,67.9,30.07,WNW,298,0.0,0.0,96,0.00,,,0.02,16,Wunderground v.1.15,2013-07-05 10:59:00,
2013-07-05 07:08:00,69.0,67.8,30.07,East,85,0.0,0.0,96,0.00,,,0.02,26,Wunderground v.1.15,2013-07-05 11:08:00,
2013-07-05 07:18:00,69.0,67.8,30.07,WNW,288,0.0,0.0,96,0.00,,,0.02,37,Wunderground v.1.15,2013-07-05 11:18:00,
2013-07-05 07:28:00,69.1,68.2,30.07,SSW,196,0.0,0.0,97,0.00,,,0.02,44,Wunderground v.1.15,2013-07-05 11:28:00,
2013-07-05 07:33:00,69.2,68.3,30.07,South,176,0.0,2.0,97,0.00,,,0.02,53,Wunderground v.1.15,2013-07-05 11:33:00,
2013-07-05 07:44:00,69.5,68.6,30.07,South,176,0.0,2.0,97,0.00,,,0.02,60,Wunderground v.1.15,2013-07-05 11:44:00,
2013-07-05 07:53:00,69.7,68.8,30.07,ENE,62,0.0,2.0,97,0.00,,,0.02,135,Wunderground v.1.15,2013-07-05 11:53:00,
2013-07-05 07:59:00,69.9,69.0,30.07,ENE,62,0.0,0.0,97,0.00,,,0.02,118,Wunderground v.1.15,2013-07-05 11:59:00,
2013-07-05 08:09:00,69.9,69.0,30.07,NW,311,0.0,0.0,97,0.00,,,0.02,88,Wunderground v.1.15,2013-07-05 12:09:00,
2013-07-05 08:18:00,70.0,69.1,30.07,WNW,299,0.0,0.0,97,0.00,,,0.02,118,Wunderground v.1.15,2013-07-05 12:18:00,
2013-07-05 08:23:00,70.1,69.2,30.07,NNE,32,0.0,0.0,97,0.00,,,0.02,149,Wunderground v.1.15,2013-07-05 12:23:00,
2013-07-05 08:28:00,70.2,69.3,30.08,WSW,238,0.0,0.0,97,0.00,,,0.02,162,Wunderground v.1.15,2013-07-05 12:28:00,
2013-07-05 08:33:00,70.4,69.5,30.08,NW,315,0.0,0.0,97,0.00,,,0.02,167,Wunderground v.1.15,2013-07-05 12:33:00,
2013-07-05 08:38:00,70.5,69.6,30.08,NW,315,0.0,0.0,97,0.00,,,0.02,153,Wunderground v.1.15,2013-07-05 12:38:00,
2013-07-05 08:48:00,70.8,69.6,30.08,West,276,0.0,0.0,96,0.00,,,0.02,121,Wunderground v.1.15,2013-07-05 12:48:00,
2013-07-05 08:58:00,70.7,69.5,30.08,NW,310,0.0,0.0,96,0.00,,,0.02,125,Wunderground v.1.15,2013-07-05 12:58:00,
2013-07-05 09:08:00,70.7,69.2,30.09,NW,323,0.0,0.0,95,0.00,,,0.02,167,Wunderground v.1.15,2013-07-05 13:08:00,
2013-07-05 09:18:00,71.1,69.9,30.09,NW,306,2.0,2.0,96,0.00,,,0.02,346,Wunderground v.1.15,2013-07-05 13:18:00,
2013-07-05 09:28:00,71.4,69.6,30.09,WNW,298,2.0,3.0,94,0.00,,,0.02,220,Wunderground v.1.15,2013-07-05 13:28:00,
2013-07-05 09:33:00,71.5,69.7,30.09,NW,317,2.0,3.0,94,0.00,,,0.02,239,Wunderground v.1.15,2013-07-05 13:33:00,
2013-07-05 09:38:00,71.7,69.9,30.09,WNW,296,1.0,6.0,94,0.00,,,0.02,308,Wunderground v.1.15,2013-07-05 13:38:00,
2013-07-05 09:44:00,71.8,69.7,30.09,NW,319,1.0,6.0,93,0.00,,,0.02,301,Wunderground v.1.15,2013-07-05 13:44:00,
2013-07-05 09:53:00,72.6,70.5,30.10,WNW,291,1.0,2.0,93,0.00,,,0.02,329,Wunderground v.1.15,2013-07-05 13:53:00,
2013-07-05 09:58:00,72.5,69.7,30.10,West,269,2.0,2.0,91,0.00,,,0.02,241,Wunderground v.1.15,2013-07-05 13:58:00,
2013-07-05 10:08:00,72.8,70.0,30.10,WNW,286,1.0,1.0,91,0.00,,,0.02,432,Wunderground v.1.15,2013-07-05 14:08:00,
2013-07-05 10:18:00,73.7,70.9,30.10,West,279,0.0,0.0,91,0.00,,,0.02,550,Wunderground v.1.15,2013-07-05 14:18:00,
2013-07-05 10:23:00,73.8,70.0,30.09,NNW,328,0.0,0.0,88,0.00,,,0.02,550,Wunderground v.1.15,2013-07-05 14:23:00,
2013-07-05 10:28:00,74.0,70.2,30.10,NNW,338,1.0,1.0,88,0.00,,,0.02,496,Wunderground v.1.15,2013-07-05 14:28:00,
2013-07-05 10:34:00,74.1,69.0,30.10,NW,314,1.0,4.0,84,0.00,,,0.02,390,Wunderground v.1.15,2013-07-05 14:34:00,
2013-07-05 10:43:00,74.2,69.4,30.10,NNW,327,1.0,6.0,85,0.00,,,0.02,555,Wunderground v.1.15,2013-07-05 14:43:00,
2013-07-05 10:53:00,74.8,67.8,30.10,NNE,15,2.0,6.0,79,0.00,,,0.02,629,Wunderground v.1.15,2013-07-05 14:53:00,
2013-07-05 10:58:00,75.2,68.6,30.10,North,355,2.0,2.0,80,0.00,,,0.02,659,Wunderground v.1.15,2013-07-05 14:58:00,
2013-07-05 11:08:00,75.7,68.0,30.10,NW,316,2.0,2.0,77,0.00,,,0.02,817,Wunderground v.1.15,2013-07-05 15:08:00,
2013-07-05 11:13:00,76.1,68.4,30.10,NW,305,2.0,2.0,77,0.00,,,0.02,826,Wunderground v.1.15,2013-07-05 15:13:00,
2013-07-05 11:23:00,77.1,66.6,30.10,NE,37,1.0,1.0,70,0.00,,,0.02,766,Wunderground v.1.15,2013-07-05 15:23:00,
2013-07-05 11:33:00,77.5,66.9,30.09,WNW,284,1.0,3.0,70,0.00,,,0.02,775,Wunderground v.1.15,2013-07-05 15:33:00,
2013-07-05 11:43:00,77.9,67.3,30.09,WNW,296,1.0,7.0,70,0.00,,,0.02,754,Wunderground v.1.15,2013-07-05 15:43:00,
2013-07-05 11:48:00,77.6,67.4,30.10,NNW,332,2.0,2.0,71,0.00,,,0.02,793,Wunderground v.1.15,2013-07-05 15:48:00,
2013-07-05 11:58:00,78.0,65.7,30.09,NW,307,1.0,1.0,66,0.00,,,0.02,874,Wunderground v.1.15,2013-07-05 15:58:00,
2013-07-05 12:08:00,78.4,67.0,30.10,NNW,336,2.0,2.0,68,0.00,,,0.02,919,Wunderground v.1.15,2013-07-05 16:08:00,
2013-07-05 12:18:00,79.0,66.7,30.09,WNW,302,0.0,0.0,66,0.00,,,0.02,947,Wunderground v.1.15,2013-07-05 16:18:00,
2013-07-05 12:28:00,79.6,65.9,30.09,NE,36,1.0,1.0,63,0.00,,,0.02,411,Wunderground v.1.15,2013-07-05 16:28:00,
2013-07-05 12:33:00,79.8,67.9,30.09,NW,315,1.0,7.0,67,0.00,,,0.02,675,Wunderground v.1.15,2013-07-05 16:33:00,
2013-07-05 12:43:00,79.5,67.1,30.09,NE,36,1.0,7.0,66,0.00,,,0.02,459,Wunderground v.1.15,2013-07-05 16:43:00,
2013-07-05 12:48:00,79.4,64.8,30.09,SSW,207,0.0,7.0,61,0.00,,,0.02,383,Wunderground v.1.15,2013-07-05 16:48:00,
2013-07-05 12:53:00,79.6,66.3,30.09,WNW,299,0.0,7.0,64,0.00,,,0.02,867,Wunderground v.1.15,2013-07-05 16:53:00,
2013-07-05 12:58:00,79.6,67.2,30.09,WNW,291,1.0,1.0,66,0.00,,,0.02,849,Wunderground v.1.15,2013-07-05 16:58:00,
2013-07-05 13:08:00,78.9,65.7,30.09,NW,323,1.0,1.0,64,0.00,,,0.02,251,Wunderground v.1.15,2013-07-05 17:08:00,
2013-07-05 13:13:00,78.9,68.7,30.09,North,355,0.0,1.0,71,0.00,,,0.02,970,Wunderground v.1.15,2013-07-05 17:13:00,
2013-07-05 13:18:00,79.1,66.8,30.09,NNE,18,0.0,0.0,66,0.00,,,0.02,422,Wunderground v.1.15,2013-07-05 17:18:00,
2013-07-05 13:28:00,79.4,65.2,30.09,ENE,74,1.0,3.0,62,0.00,,,0.02,336,Wunderground v.1.15,2013-07-05 17:28:00,
2013-07-05 13:37:00,79.0,65.3,30.08,SE,142,2.0,7.0,63,0.00,,,0.02,408,Wunderground v.1.15,2013-07-05 17:37:00,
2013-07-05 13:43:00,78.9,64.8,30.08,SE,126,2.0,7.0,62,0.00,,,0.02,411,Wunderground v.1.15,2013-07-05 17:43:00,
2013-07-05 13:48:00,78.9,65.2,30.09,SE,130,2.0,7.0,63,0.00,,,0.02,371,Wunderground v.1.15,2013-07-05 17:48:00,
2013-07-05 13:53:00,78.9,64.3,30.09,South,169,3.0,7.0,61,0.00,,,0.02,378,Wunderground v.1.15,2013-07-05 17:53:00,
2013-07-05 13:58:00,79.2,65.1,30.09,NNW,331,1.0,1.0,62,0.00,,,0.02,383,Wunderground v.1.15,2013-07-05 17:58:00,
2013-07-05 14:08:00,79.8,65.6,30.09,NW,326,0.0,0.0,62,0.00,,,0.02,339,Wunderground v.1.15,2013-07-05 18:08:00,
2013-07-05 14:13:00,80.1,66.8,30.08,NW,326,0.0,0.0,64,0.00,,,0.02,406,Wunderground v.1.15,2013-07-05 18:13:00,
2013-07-05 14:18:00,80.3,65.6,30.09,NW,326,0.0,0.0,61,0.00,,,0.02,338,Wunderground v.1.15,2013-07-05 18:18:00,
2013-07-05 14:23:00,80.4,65.7,30.08,NW,326,0.0,0.0,61,0.00,,,0.02,281,Wunderground v.1.15,2013-07-05 18:23:00,
2013-07-05 14:28:00,80.3,65.6,30.08,ESE,123,0.0,0.0,61,0.00,,,0.02,294,Wunderground v.1.15,2013-07-05 18:28:00,
2013-07-05 14:38:00,80.5,67.2,30.08,ESE,123,0.0,6.0,64,0.00,,,0.02,325,Wunderground v.1.15,2013-07-05 18:38:00,
2013-07-05 14:43:00,80.3,68.3,30.08,SE,143,0.0,6.0,67,0.00,,,0.02,374,Wunderground v.1.15,2013-07-05 18:43:00,
2013-07-05 14:48:00,79.8,69.6,30.08,SSE,150,1.0,1.0,71,0.00,,,0.02,849,Wunderground v.1.15,2013-07-05 18:48:00,
2013-07-05 14:58:00,79.3,69.5,30.08,South,171,2.0,4.0,72,0.00,,,0.02,320,Wunderground v.1.15,2013-07-05 18:58:00,
2013-07-05 15:08:00,78.2,69.2,30.08,ESE,121,3.0,3.0,74,0.00,,,0.02,262,Wunderground v.1.15,2013-07-05 19:08:00,
2013-07-05 15:13:00,78.1,69.5,30.08,East,91,1.0,4.0,75,0.00,,,0.02,320,Wunderground v.1.15,2013-07-05 19:13:00,
2013-07-05 15:18:00,78.4,69.8,30.08,SE,136,1.0,2.0,75,0.00,,,0.02,587,Wunderground v.1.15,2013-07-05 19:18:00,
2013-07-05 15:28:00,78.4,69.0,30.08,SSE,153,4.0,4.0,73,0.00,,,0.02,214,Wunderground v.1.15,2013-07-05 19:28:00,
2013-07-05 15:38:00,77.9,68.9,30.08,SE,142,5.0,7.0,74,0.00,,,0.02,406,Wunderground v.1.15,2013-07-05 19:38:00,
2013-07-05 15:43:00,78.2,69.2,30.07,ESE,107,5.0,7.0,74,0.00,,,0.02,798,Wunderground v.1.15,2013-07-05 19:43:00,
2013-07-05 15:52:00,79.0,68.8,30.07,SSE,165,3.0,4.0,71,0.00,,,0.02,687,Wunderground v.1.15,2013-07-05 19:52:00,
2013-07-05 15:58:00,79.3,67.0,30.07,ESE,122,4.0,5.0,66,0.00,,,0.02,659,Wunderground v.1.15,2013-07-05 19:58:00,
2013-07-05 16:08:00,79.5,70.1,30.07,SSE,164,5.0,6.0,73,0.00,,,0.02,687,Wunderground v.1.15,2013-07-05 20:08:00,
2013-07-05 16:13:00,79.6,69.8,30.06,SSW,210,5.0,6.0,72,0.00,,,0.02,635,Wunderground v.1.15,2013-07-05 20:13:00,
2013-07-05 16:18:00,79.9,69.7,30.06,South,185,4.0,4.0,71,0.00,,,0.02,631,Wunderground v.1.15,2013-07-05 20:18:00,
2013-07-05 16:28:00,79.7,70.3,30.06,SSE,165,5.0,5.0,73,0.00,,,0.02,649,Wunderground v.1.15,2013-07-05 20:28:00,
2013-07-05 16:33:00,79.7,69.5,30.06,SE,146,5.0,9.0,71,0.00,,,0.02,643,Wunderground v.1.15,2013-07-05 20:33:00,
2013-07-05 16:43:00,79.4,68.8,30.06,SE,126,7.0,9.0,70,0.00,,,0.02,343,Wunderground v.1.15,2013-07-05 20:43:00,
2013-07-05 16:48:00,79.2,69.4,30.06,South,175,7.0,7.0,72,0.00,,,0.02,309,Wunderground v.1.15,2013-07-05 20:48:00,
2013-07-05 16:53:00,79.2,69.0,30.06,SSE,160,6.0,9.0,71,0.00,,,0.02,615,Wunderground v.1.15,2013-07-05 20:53:00,
2013-07-05 16:58:00,79.3,68.7,30.05,South,177,5.0,5.0,70,0.00,,,0.02,591,Wunderground v.1.15,2013-07-05 20:58:00,
2013-07-05 17:08:00,79.4,68.3,30.05,South,169,4.0,6.0,69,0.00,,,0.02,330,Wunderground v.1.15,2013-07-05 21:08:00,
2013-07-05 17:13:00,79.6,68.5,30.05,SSE,155,4.0,6.0,69,0.00,,,0.02,589,Wunderground v.1.15,2013-07-05 21:13:00,
2013-07-05 17:18:00,79.9,68.8,30.05,SE,140,2.0,2.0,69,0.00,,,0.02,462,Wunderground v.1.15,2013-07-05 21:18:00,
2013-07-05 17:28:00,79.7,67.3,30.05,SE,143,3.0,3.0,66,0.00,,,0.02,438,Wunderground v.1.15,2013-07-05 21:28:00,
2013-07-05 17:38:00,80.1,68.6,30.05,South,184,2.0,12.0,68,0.00,,,0.02,439,Wunderground v.1.15,2013-07-05 21:38:00,
2013-07-05 17:48:00,80.1,68.6,30.05,SE,142,4.0,12.0,68,0.00,,,0.02,155,Wunderground v.1.15,2013-07-05 21:48:00,
2013-07-05 17:53:00,79.8,68.3,30.05,SE,146,5.0,12.0,68,0.00,,,0.02,497,Wunderground v.1.15,2013-07-05 21:53:00,
2013-07-05 18:02:00,79.6,67.7,30.05,SSE,154,4.0,6.0,67,0.00,,,0.02,482,Wunderground v.1.15,2013-07-05 22:02:00,
2013-07-05 18:07:00,79.6,68.1,30.05,SSW,194,5.0,6.0,68,0.00,,,0.02,214,Wunderground v.1.15,2013-07-05 22:07:00,
2013-07-05 18:12:00,79.5,68.4,30.04,ENE,77,5.0,5.0,69,0.00,,,0.02,104,Wunderground v.1.15,2013-07-05 22:12:00,
2013-07-05 18:23:00,79.4,68.8,30.05,SSE,160,0.0,0.0,70,0.00,,,0.02,127,Wunderground v.1.15,2013-07-05 22:23:00,
2013-07-05 18:33:00,79.3,68.7,30.05,SE,136,2.0,9.0,70,0.00,,,0.02,76,Wunderground v.1.15,2013-07-05 22:33:00,
2013-07-05 18:38:00,79.2,67.7,30.05,SSE,161,2.0,9.0,68,0.00,,,0.02,120,Wunderground v.1.15,2013-07-05 22:38:00,
2013-07-05 18:48:00,79.0,68.8,30.05,SSE,164,4.0,6.0,71,0.00,,,0.02,156,Wunderground v.1.15,2013-07-05 22:48:00,
2013-07-05 18:58:00,79.1,69.3,30.04,SSE,163,4.0,4.0,72,0.00,,,0.02,183,Wunderground v.1.15,2013-07-05 22:58:00,
2013-07-05 19:08:00,79.0,69.6,30.04,SE,133,4.0,6.0,73,0.00,,,0.02,204,Wunderground v.1.15,2013-07-05 23:08:00,
2013-07-05 19:13:00,78.8,69.8,30.04,SE,137,5.0,6.0,74,0.00,,,0.02,127,Wunderground v.1.15,2013-07-05 23:13:00,
2013-07-05 19:23:00,78.5,69.1,30.04,South,170,6.0,7.0,73,0.00,,,0.02,192,Wunderground v.1.15,2013-07-05 23:23:00,
2013-07-05 19:33:00,78.3,69.3,30.04,South,180,5.0,11.0,74,0.00,,,0.02,123,Wunderground v.1.15,2013-07-05 23:33:00,
2013-07-05 19:38:00,78.2,69.6,30.04,SSE,167,4.0,4.0,75,0.00,,,0.02,121,Wunderground v.1.15,2013-07-05 23:38:00,
2013-07-05 19:43:00,78.0,69.0,30.04,SSE,159,3.0,11.0,74,0.00,,,0.02,93,Wunderground v.1.15,2013-07-05 23:43:00,
2013-07-05 19:48:00,77.9,68.9,30.04,SSE,155,3.0,11.0,74,0.00,,,0.02,84,Wunderground v.1.15,2013-07-05 23:48:00,
2013-07-05 19:53:00,77.8,69.2,30.05,SSE,157,3.0,11.0,75,0.00,,,0.02,70,Wunderground v.1.15,2013-07-05 23:53:00,
2013-07-05 19:58:00,77.6,68.7,30.04,SSE,166,4.0,4.0,74,0.00,,,0.02,77,Wunderground v.1.15,2013-07-05 23:58:00,
2013-07-05 20:07:00,77.3,68.8,30.05,SSE,162,5.0,5.0,75,0.00,,,0.02,70,Wunderground v.1.15,2013-07-06 00:07:00,
2013-07-05 20:13:00,77.2,68.7,30.05,SSE,163,3.0,5.0,75,0.00,,,0.02,70,Wunderground v.1.15,2013-07-06 00:13:00,
2013-07-05 20:18:00,77.1,68.9,30.05,SSE,163,3.0,4.0,76,0.00,,,0.02,54,Wunderground v.1.15,2013-07-06 00:18:00,
2013-07-05 20:28:00,76.8,68.7,30.05,South,184,2.0,2.0,76,0.00,,,0.02,33,Wunderground v.1.15,2013-07-06 00:28:00,
2013-07-05 20:38:00,76.6,68.5,30.05,SSE,164,2.0,2.0,76,0.00,,,0.02,18,Wunderground v.1.15,2013-07-06 00:38:00,
2013-07-05 20:43:00,76.4,69.0,30.05,NE,42,1.0,11.0,78,0.00,,,0.02,16,Wunderground v.1.15,2013-07-06 00:43:00,
2013-07-05 20:53:00,75.7,68.7,30.06,ENE,78,0.0,11.0,79,0.00,,,0.02,18,Wunderground v.1.15,2013-07-06 00:53:00,
2013-07-05 20:58:00,75.5,68.9,30.06,South,178,0.0,4.0,80,0.00,,,0.02,14,Wunderground v.1.15,2013-07-06 00:58:00,
2013-07-05 21:03:00,75.3,68.7,30.06,South,178,0.0,4.0,80,0.00,,,0.02,11,Wunderground v.1.15,2013-07-06 01:03:00,
2013-07-05 21:13:00,75.0,68.0,30.06,South,175,1.0,1.0,79,0.00,,,0.02,0,Wunderground v.1.15,2013-07-06 01:13:00,
2013-07-05 21:23:00,74.6,68.4,30.06,South,186,0.0,1.0,81,0.00,,,0.02,0,Wunderground v.1.15,2013-07-06 01:23:00,
2013-07-05 21:33:00,74.0,67.8,30.07,SSE,165,0.0,8.0,81,0.00,,,0.02,0,Wunderground v.1.15,2013-07-06 01:33:00,
2013-07-05 21:38:00,73.8,68.3,30.07,SSE,165,0.0,8.0,83,0.00,,,0.02,0,Wunderground v.1.15,2013-07-06 01:38:00,
2013-07-05 21:47:00,73.2,68.1,30.07,SSE,165,0.0,8.0,84,0.00,,,0.02,0,Wunderground v.1.15,2013-07-06 01:47:00,
2013-07-05 21:58:00,72.8,67.3,30.07,SSE,165,0.0,0.0,83,0.00,,,0.02,0,Wunderground v.1.15,2013-07-06 01:58:00,
2013-07-05 22:08:00,72.6,67.1,30.08,SSE,165,0.0,0.0,83,0.00,,,0.02,0,Wunderground v.1.15,2013-07-06 02:08:00,
2013-07-05 22:13:00,72.6,67.5,30.07,SSE,165,0.0,0.0,84,0.00,,,0.02,0,Wunderground v.1.15,2013-07-06 02:13:00,
2013-07-05 22:23:00,72.1,67.3,30.08,SSE,165,0.0,0.0,85,0.00,,,0.02,0,Wunderground v.1.15,2013-07-06 02:23:00,
2013-07-05 22:28:00,71.9,67.1,30.08,SSE,165,0.0,0.0,85,0.00,,,0.02,0,Wunderground v.1.15,2013-07-06 02:28:00,
2013-07-05 22:33:00,71.6,67.2,30.08,SSE,165,0.0,6.0,86,0.00,,,0.02,0,Wunderground v.1.15,2013-07-06 02:33:00,
2013-07-05 22:43:00,71.1,67.0,30.08,SSE,165,0.0,6.0,87,0.00,,,0.02,0,Wunderground v.1.15,2013-07-06 02:43:00,
2013-07-05 22:53:00,70.6,66.9,30.08,SSE,165,0.0,6.0,88,0.00,,,0.02,0,Wunderground v.1.15,2013-07-06 02:53:00,
2013-07-05 22:58:00,70.4,67.0,30.08,SSE,165,0.0,0.0,89,0.00,,,0.02,0,Wunderground v.1.15,2013-07-06 02:58:00,
2013-07-05 23:08:00,70.1,66.7,30.08,SSE,165,0.0,0.0,89,0.00,,,0.02,0,Wunderground v.1.15,2013-07-06 03:08:00,
2013-07-05 23:13:00,70.0,66.9,30.08,SSE,165,0.0,0.0,90,0.00,,,0.02,0,Wunderground v.1.15,2013-07-06 03:13:00,
2013-07-05 23:18:00,70.0,66.9,30.08,SSE,165,0.0,0.0,90,0.00,,,0.02,0,Wunderground v.1.15,2013-07-06 03:18:00,
2013-07-05 23:23:00,70.0,66.9,30.08,SSE,165,0.0,0.0,90,0.00,,,0.02,0,Wunderground v.1.15,2013-07-06 03:23:00,
2013-07-05 23:28:00,69.9,66.8,30.08,SSE,165,0.0,0.0,90,0.00,,,0.02,0,Wunderground v.1.15,2013-07-06 03:28:00,
2013-07-05 23:33:00,69.7,67.0,30.08,SSE,165,0.0,0.0,91,0.00,,,0.02,0,Wunderground v.1.15,2013-07-06 03:33:00,
2013-07-05 23:43:00,69.5,66.8,30.08,SSE,165,0.0,0.0,91,0.00,,,0.02,0,Wunderground v.1.15,2013-07-06 03:43:00,
2013-07-05 23:53:00,69.4,67.0,30.09,SSE,165,0.0,0.0,92,0.00,,,0.02,0,Wunderground v.1.15,2013-07-06 03:53:00,
2013-07-05 23:58:00,69.5,67.1,30.09,SSE,165,0.0,0.0,92,0.00,,,0.02,0,Wunderground v.1.15,2013-07-06 03:58:00,